Time,TemperatureF,DewpointF,PressureIn,WindDirection,WindDirectionDegrees,WindSpeedMPH,WindSpeedGustMPH,Humidity,HourlyPrecipIn,Conditions,Clouds,dailyrainin,SoftwareType,DateUTC
2013-09-30 00:02:00,57.1,55.7,29.99,WSW,257,0.0,0.0,95,0.00,,,0.00,Wunderground v.1.15,2013-09-30 04:02:00,
2013-09-30 00:03:00,57.1,55.7,29.99,WSW,257,0.0,0.0,95,0.00,,,0.00,Wunderground v.1.15,2013-09-30 04:03:00,
2013-09-30 00:04:00,57.1,55.7,29.99,WSW,257,0.0,0.0,95,0.00,,,0.00,Wunderground v.1.15,2013-09-30 04:04:00,
2013-09-30 00:08:00,57.1,55.7,29.99,WSW,257,0.0,0.0,95,0.00,,,0.00,Wunderground v.1.15,2013-09-30 04:08:00,
2013-09-30 00:13:00,57.1,55.7,29.99,WSW,257,0.0,0.0,95,0.00,,,0.00,Wunderground v.1.15,2013-09-30 04:13:00,
2013-09-30 00:19:00,57.1,55.7,30.00,WSW,257,0.0,0.0,95,0.00,,,0.00,Wunderground v.1.15,2013-09-30 04:19:00,
2013-09-30 00:25:00,57.1,55.7,30.00,WSW,257,0.0,0.0,95,0.00,,,0.00,Wunderground v.1.15,2013-09-30 04:25:00,
2013-09-30 00:31:00,57.1,56.0,30.00,WSW,257,0.0,0.0,96,0.00,,,0.00,Wunderground v.1.15,2013-09-30 04:31:00,
2013-09-30 00:37:00,57.1,55.7,30.00,WSW,257,0.0,0.0,95,0.00,,,0.00,Wunderground v.1.15,2013-09-30 04:37:00,
2013-09-30 00:44:00,57.1,55.7,30.00,WSW,257,0.0,0.0,95,0.00,,,0.00,Wunderground v.1.15,2013-09-30 04:44:00,
2013-09-30 00:49:00,57.1,55.7,30.00,WSW,257,0.0,0.0,95,0.00,,,0.00,Wunderground v.1.15,2013-09-30 04:49:00,
2013-09-30 00:55:00,57.1,55.7,30.00,WSW,257,0.0,0.0,95,0.00,,,0.00,Wunderground v.1.15,2013-09-30 04:55:00,
2013-09-30 01:00:00,57.1,55.7,30.00,WSW,257,0.0,0.0,95,0.00,,,0.00,Wunderground v.1.15,2013-09-30 05:00:00,
2013-09-30 01:06:00,57.1,55.7,29.99,WSW,257,0.0,0.0,95,0.00,,,0.00,Wunderground v.1.15,2013-09-30 05:06:00,
2013-09-30 01:12:00,57.1,55.7,29.99,WSW,257,0.0,0.0,95,0.00,,,0.00,Wunderground v.1.15,2013-09-30 05:12:00,
2013-09-30 01:18:00,57.1,55.7,29.99,WSW,257,0.0,0.0,95,0.00,,,0.00,Wunderground v.1.15,2013-09-30 05:18:00,
2013-09-30 01:24:00,57.1,55.7,29.99,WSW,257,0.0,0.0,95,0.00,,,0.00,Wunderground v.1.15,2013-09-30 05:24:00,
2013-09-30 01:30:00,57.1,55.7,29.99,WSW,257,0.0,0.0,95,0.00,,,0.00,Wunderground v.1.15,2013-09-30 05:30:00,
2013-09-30 01:36:00,57.1,55.7,29.99,WSW,257,0.0,0.0,95,0.00,,,0.00,Wunderground v.1.15,2013-09-30 05:36:00,
2013-09-30 01:42:00,57.1,55.7,29.99,WSW,257,0.0,0.0,95,0.00,,,0.00,Wunderground v.1.15,2013-09-30 05:42:00,
2013-09-30 01:48:00,57.0,55.6,29.99,WSW,257,0.0,0.0,95,0.00,,,0.00,Wunderground v.1.15,2013-09-30 05:48:00,
2013-09-30 01:54:00,57.0,55.6,29.99,WSW,257,0.0,0.0,95,0.00,,,0.00,Wunderground v.1.15,2013-09-30 05:54:00,
2013-09-30 02:00:00,57.0,55.6,29.99,WSW,257,0.0,0.0,95,0.00,,,0.00,Wunderground v.1.15,2013-09-30 06:00:00,
2013-09-30 02:06:00,56.9,55.5,29.99,WSW,257,0.0,0.0,95,0.00,,,0.00,Wunderground v.1.15,2013-09-30 06:06:00,
2013-09-30 02:12:00,56.8,55.1,29.99,WSW,257,0.0,0.0,94,0.00,,,0.00,Wunderground v.1.15,2013-09-30 06:12:00,
2013-09-30 02:18:00,56.5,55.1,29.98,WSW,257,0.0,0.0,95,0.00,,,0.00,Wunderground v.1.15,2013-09-30 06:18:00,
2013-09-30 02:23:00,56.4,55.0,29.98,WSW,257,0.0,0.0,95,0.00,,,0.00,Wunderground v.1.15,2013-09-30 06:23:00,
2013-09-30 02:29:00,56.2,54.8,29.98,WSW,257,0.0,0.0,95,0.00,,,0.00,Wunderground v.1.15,2013-09-30 06:29:00,
2013-09-30 02:35:00,56.0,54.6,29.98,WSW,257,0.0,0.0,95,0.00,,,0.00,Wunderground v.1.15,2013-09-30 06:35:00,
2013-09-30 02:41:00,55.7,54.3,29.98,WSW,257,0.0,0.0,95,0.00,,,0.00,Wunderground v.1.15,2013-09-30 06:41:00,
2013-09-30 02:47:00,55.5,54.4,29.98,WSW,257,0.0,0.0,96,0.00,,,0.00,Wunderground v.1.15,2013-09-30 06:47:00,
2013-09-30 02:53:00,55.5,54.4,29.98,WSW,257,0.0,0.0,96,0.00,,,0.00,Wunderground v.1.15,2013-09-30 06:53:00,
2013-09-30 02:59:00,55.4,55.1,29.98,WSW,257,0.0,0.0,99,0.00,,,0.00,Wunderground v.1.15,2013-09-30 06:59:00,
2013-09-30 03:05:00,55.4,54.3,29.98,WSW,257,0.0,0.0,96,0.00,,,0.00,Wunderground v.1.15,2013-09-30 07:05:00,
2013-09-30 03:11:00,55.3,54.2,29.98,WSW,257,0.0,0.0,96,0.00,,,0.00,Wunderground v.1.15,2013-09-30 07:11:00,
2013-09-30 03:17:00,55.2,54.1,29.98,WSW,257,0.0,0.0,96,0.00,,,0.00,Wunderground v.1.15,2013-09-30 07:17:00,
2013-09-30 03:23:00,55.1,54.0,29.97,WSW,257,0.0,0.0,96,0.00,,,0.00,Wunderground v.1.15,2013-09-30 07:23:00,
2013-09-30 03:29:00,54.9,53.8,29.97,WSW,257,0.0,0.0,96,0.00,,,0.00,Wunderground v.1.15,2013-09-30 07:29:00,
2013-09-30 03:35:00,54.6,53.5,29.96,WSW,257,0.0,2.0,96,0.00,,,0.00,Wunderground v.1.15,2013-09-30 07:35:00,
2013-09-30 03:40:00,54.5,53.7,29.96,WSW,257,0.0,0.0,97,0.00,,,0.00,Wunderground v.1.15,2013-09-30 07:40:00,
2013-09-30 03:45:00,54.4,53.6,29.96,WSW,257,0.0,0.0,97,0.00,,,0.00,Wunderground v.1.15,2013-09-30 07:45:00,
2013-09-30 03:50:00,54.2,53.4,29.96,WSW,257,0.0,0.0,97,0.00,,,0.00,Wunderground v.1.15,2013-09-30 07:50:00,
2013-09-30 03:56:00,53.9,53.1,29.96,WSW,256,0.0,1.0,97,0.00,,,0.00,Wunderground v.1.15,2013-09-30 07:56:00,
2013-09-30 04:02:00,53.8,53.0,29.96,WSW,257,0.0,0.0,97,0.00,,,0.00,Wunderground v.1.15,2013-09-30 08:02:00,
2013-09-30 04:08:00,53.6,52.8,29.96,WSW,257,0.0,0.0,97,0.00,,,0.00,Wunderground v.1.15,2013-09-30 08:08:00,
2013-09-30 04:14:00,53.4,52.6,29.96,WSW,257,0.0,0.0,97,0.00,,,0.00,Wunderground v.1.15,2013-09-30 08:14:00,
2013-09-30 04:20:00,53.2,52.4,29.97,WSW,256,0.0,0.0,97,0.00,,,0.00,Wunderground v.1.15,2013-09-30 08:20:00,
2013-09-30 04:26:00,53.1,52.3,29.97,WSW,256,0.0,0.0,97,0.00,,,0.00,Wunderground v.1.15,2013-09-30 08:26:00,
2013-09-30 04:32:00,53.1,52.3,29.97,WSW,256,0.0,0.0,97,0.00,,,0.00,Wunderground v.1.15,2013-09-30 08:32:00,
2013-09-30 04:38:00,52.9,52.1,29.98,WSW,256,0.0,0.0,97,0.00,,,0.00,Wunderground v.1.15,2013-09-30 08:38:00,
2013-09-30 04:44:00,52.8,52.0,29.98,WSW,256,0.0,0.0,97,0.00,,,0.00,Wunderground v.1.15,2013-09-30 08:44:00,
2013-09-30 04:50:00,52.5,51.7,29.98,WSW,256,0.0,0.0,97,0.00,,,0.00,Wunderground v.1.15,2013-09-30 08:50:00,
2013-09-30 04:56:00,52.4,51.6,29.98,WSW,256,0.0,0.0,97,0.00,,,0.00,Wunderground v.1.15,2013-09-30 08:56:00,
2013-09-30 05:02:00,52.3,51.5,29.98,WSW,256,0.0,0.0,97,0.00,,,0.00,Wunderground v.1.15,2013-09-30 09:02:00,
2013-09-30 05:08:00,52.3,51.8,29.98,WSW,257,0.0,0.0,98,0.00,,,0.00,Wunderground v.1.15,2013-09-30 09:08:00,
2013-09-30 05:14:00,52.2,51.7,29.98,WSW,257,0.0,0.0,98,0.00,,,0.00,Wunderground v.1.15,2013-09-30 09:14:00,
2013-09-30 05:20:00,52.1,51.3,29.98,WSW,257,0.0,0.0,97,0.00,,,0.00,Wunderground v.1.15,2013-09-30 09:20:00,
2013-09-30 05:26:00,51.9,51.1,29.98,WSW,257,0.0,0.0,97,0.00,,,0.00,Wunderground v.1.15,2013-09-30 09:26:00,
2013-09-30 05:32:00,51.9,51.4,29.98,WSW,257,0.0,0.0,98,0.00,,,0.00,Wunderground v.1.15,2013-09-30 09:32:00,
2013-09-30 05:38:00,51.9,51.4,29.99,WSW,256,0.0,0.0,98,0.00,,,0.00,Wunderground v.1.15,2013-09-30 09:38:00,
2013-09-30 05:44:00,51.9,51.4,29.99,WSW,257,0.0,0.0,98,0.00,,,0.00,Wunderground v.1.15,2013-09-30 09:44:00,
2013-09-30 05:50:00,51.7,51.2,29.99,WSW,256,0.0,0.0,98,0.00,,,0.00,Wunderground v.1.15,2013-09-30 09:50:00,
2013-09-30 05:55:00,51.6,51.1,29.99,WSW,257,0.0,0.0,98,0.00,,,0.00,Wunderground v.1.15,2013-09-30 09:55:00,
2013-09-30 06:01:00,51.5,51.0,29.99,WSW,257,0.0,0.0,98,0.00,,,0.00,Wunderground v.1.15,2013-09-30 10:01:00,
2013-09-30 06:07:00,51.3,50.8,29.99,WSW,257,0.0,0.0,98,0.00,,,0.00,Wunderground v.1.15,2013-09-30 10:07:00,
2013-09-30 06:13:00,51.0,50.5,29.99,WSW,257,0.0,0.0,98,0.00,,,0.00,Wunderground v.1.15,2013-09-30 10:13:00,
2013-09-30 06:18:00,50.9,50.4,30.00,WSW,257,0.0,0.0,98,0.00,,,0.00,Wunderground v.1.15,2013-09-30 10:18:00,
2013-09-30 06:23:00,50.9,50.1,30.00,WSW,256,0.0,0.0,97,0.00,,,0.00,Wunderground v.1.15,2013-09-30 10:23:00,
2013-09-30 06:29:00,50.9,50.4,30.00,WSW,257,0.0,0.0,98,0.00,,,0.00,Wunderground v.1.15,2013-09-30 10:29:00,
2013-09-30 06:35:00,51.0,50.5,30.00,WSW,257,0.0,0.0,98,0.00,,,0.00,Wunderground v.1.15,2013-09-30 10:35:00,
2013-09-30 06:40:00,51.0,50.5,30.00,WSW,257,0.0,0.0,98,0.00,,,0.00,Wunderground v.1.15,2013-09-30 10:40:00,
2013-09-30 06:46:00,51.0,50.5,30.00,WSW,257,0.0,0.0,98,0.00,,,0.00,Wunderground v.1.15,2013-09-30 10:46:00,
2013-09-30 06:51:00,50.9,50.4,30.01,WSW,256,0.0,0.0,98,0.00,,,0.00,Wunderground v.1.15,2013-09-30 10:51:00,
2013-09-30 06:57:00,50.8,50.3,30.01,WSW,256,0.0,0.0,98,0.00,,,0.00,Wunderground v.1.15,2013-09-30 10:57:00,
2013-09-30 07:03:00,50.6,50.1,30.01,WSW,256,0.0,0.0,98,0.00,,,0.00,Wunderground v.1.15,2013-09-30 11:03:00,
2013-09-30 07:08:00,50.5,50.0,30.01,WSW,257,0.0,0.0,98,0.00,,,0.00,Wunderground v.1.15,2013-09-30 11:08:00,
2013-09-30 07:14:00,50.5,50.0,30.01,WSW,257,0.0,0.0,98,0.00,,,0.00,Wunderground v.1.15,2013-09-30 11:14:00,
2013-09-30 07:20:00,50.6,50.1,30.01,WSW,257,0.0,0.0,98,0.00,,,0.00,Wunderground v.1.15,2013-09-30 11:20:00,
2013-09-30 07:26:00,50.5,50.0,30.01,WSW,256,0.0,0.0,98,0.00,,,0.00,Wunderground v.1.15,2013-09-30 11:26:00,
2013-09-30 07:32:00,50.5,50.0,30.01,WSW,256,0.0,0.0,98,0.00,,,0.00,Wunderground v.1.15,2013-09-30 11:32:00,
2013-09-30 07:38:00,50.5,50.0,30.02,WSW,257,0.0,0.0,98,0.00,,,0.00,Wunderground v.1.15,2013-09-30 11:38:00,
2013-09-30 07:44:00,50.5,50.0,30.02,WSW,256,0.0,0.0,98,0.00,,,0.00,Wunderground v.1.15,2013-09-30 11:44:00,
2013-09-30 07:49:00,50.5,50.0,30.02,WSW,256,0.0,0.0,98,0.00,,,0.00,Wunderground v.1.15,2013-09-30 11:49:00,
2013-09-30 07:55:00,50.5,50.0,30.02,WSW,256,0.0,0.0,98,0.00,,,0.00,Wunderground v.1.15,2013-09-30 11:55:00,
2013-09-30 08:01:00,50.6,50.1,30.02,WSW,257,0.0,0.0,98,0.00,,,0.00,Wunderground v.1.15,2013-09-30 12:01:00,
2013-09-30 08:07:00,50.6,50.1,30.03,WSW,257,0.0,0.0,98,0.00,,,0.00,Wunderground v.1.15,2013-09-30 12:07:00,
2013-09-30 08:12:00,50.6,50.1,30.03,WSW,257,0.0,0.0,98,0.00,,,0.00,Wunderground v.1.15,2013-09-30 12:12:00,
2013-09-30 08:18:00,50.8,50.3,30.03,WSW,256,0.0,0.0,98,0.00,,,0.00,Wunderground v.1.15,2013-09-30 12:18:00,
2013-09-30 08:23:00,50.7,50.2,30.03,WSW,256,0.0,0.0,98,0.00,,,0.00,Wunderground v.1.15,2013-09-30 12:23:00,
2013-09-30 08:29:00,50.7,50.2,30.03,WSW,257,0.0,0.0,98,0.00,,,0.00,Wunderground v.1.15,2013-09-30 12:29:00,
2013-09-30 08:34:00,50.8,50.3,30.03,WSW,256,0.0,0.0,98,0.00,,,0.00,Wunderground v.1.15,2013-09-30 12:34:00,
2013-09-30 08:40:00,50.9,50.4,30.03,WSW,257,0.0,0.0,98,0.00,,,0.00,Wunderground v.1.15,2013-09-30 12:40:00,
2013-09-30 08:46:00,51.1,50.6,30.03,WSW,257,0.0,0.0,98,0.00,,,0.00,Wunderground v.1.15,2013-09-30 12:46:00,
2013-09-30 08:52:00,51.2,50.7,30.03,WSW,257,0.0,0.0,98,0.00,,,0.00,Wunderground v.1.15,2013-09-30 12:52:00,
2013-09-30 08:58:00,51.5,51.2,30.03,WSW,257,0.0,0.0,99,0.00,,,0.00,Wunderground v.1.15,2013-09-30 12:58:00,
2013-09-30 09:03:00,51.6,51.3,30.03,WSW,256,0.0,0.0,99,0.00,,,0.00,Wunderground v.1.15,2013-09-30 13:03:00,
2013-09-30 09:08:00,51.7,51.4,30.03,WSW,256,0.0,0.0,99,0.00,,,0.00,Wunderground v.1.15,2013-09-30 13:08:00,
2013-09-30 09:14:00,51.9,51.6,30.03,WSW,257,0.0,0.0,99,0.00,,,0.00,Wunderground v.1.15,2013-09-30 13:14:00,
2013-09-30 09:20:00,52.4,52.1,30.03,WSW,257,0.0,0.0,99,0.00,,,0.00,Wunderground v.1.15,2013-09-30 13:20:00,
2013-09-30 09:26:00,52.9,52.6,30.03,WSW,257,0.0,0.0,99,0.00,,,0.00,Wunderground v.1.15,2013-09-30 13:26:00,
2013-09-30 09:32:00,53.1,52.8,30.03,WSW,256,0.0,0.0,99,0.00,,,0.00,Wunderground v.1.15,2013-09-30 13:32:00,
2013-09-30 09:38:00,53.1,52.8,30.03,WSW,257,0.0,0.0,99,0.00,,,0.00,Wunderground v.1.15,2013-09-30 13:38:00,
2013-09-30 09:44:00,53.5,53.2,30.03,WSW,256,0.0,0.0,99,0.00,,,0.00,Wunderground v.1.15,2013-09-30 13:44:00,
2013-09-30 09:50:00,53.9,53.6,30.03,WSW,257,0.0,0.0,99,0.00,,,0.00,Wunderground v.1.15,2013-09-30 13:50:00,
2013-09-30 09:56:00,54.1,53.8,30.03,WSW,257,0.0,0.0,99,0.00,,,0.00,Wunderground v.1.15,2013-09-30 13:56:00,
2013-09-30 10:02:00,54.6,54.3,30.03,WSW,257,0.0,0.0,99,0.00,,,0.00,Wunderground v.1.15,2013-09-30 14:02:00,
2013-09-30 10:08:00,55.0,54.7,30.03,WSW,257,0.0,0.0,99,0.00,,,0.00,Wunderground v.1.15,2013-09-30 14:08:00,
2013-09-30 10:14:00,55.3,55.0,30.03,WSW,256,0.0,0.0,99,0.00,,,0.00,Wunderground v.1.15,2013-09-30 14:14:00,
2013-09-30 10:20:00,55.3,55.0,30.03,WSW,257,0.0,0.0,99,0.00,,,0.00,Wunderground v.1.15,2013-09-30 14:20:00,
2013-09-30 10:25:00,55.8,55.5,30.03,WSW,257,0.0,0.0,99,0.00,,,0.00,Wunderground v.1.15,2013-09-30 14:25:00,
2013-09-30 10:31:00,55.9,55.3,30.03,WSW,257,0.0,0.0,98,0.00,,,0.00,Wunderground v.1.15,2013-09-30 14:31:00,
2013-09-30 10:37:00,56.0,55.4,30.03,WSW,256,0.0,0.0,98,0.00,,,0.00,Wunderground v.1.15,2013-09-30 14:37:00,
2013-09-30 10:43:00,56.2,55.6,30.03,WSW,257,0.0,0.0,98,0.00,,,0.00,Wunderground v.1.15,2013-09-30 14:43:00,
2013-09-30 10:49:00,56.2,55.4,30.02,WSW,257,0.0,0.0,97,0.00,,,0.00,Wunderground v.1.15,2013-09-30 14:49:00,
2013-09-30 10:55:00,57.0,56.4,30.02,WSW,257,0.0,0.0,98,0.00,,,0.00,Wunderground v.1.15,2013-09-30 14:55:00,
2013-09-30 11:01:00,58.8,58.5,30.02,WSW,257,0.0,0.0,99,0.00,,,0.00,Wunderground v.1.15,2013-09-30 15:01:00,
2013-09-30 11:07:00,59.9,58.8,30.02,WSW,257,0.0,0.0,96,0.00,,,0.00,Wunderground v.1.15,2013-09-30 15:07:00,
2013-09-30 11:13:00,61.5,59.8,30.02,WSW,256,0.0,0.0,94,0.00,,,0.00,Wunderground v.1.15,2013-09-30 15:13:00,
2013-09-30 11:18:00,62.7,60.0,30.02,WSW,257,0.0,0.0,91,0.00,,,0.00,Wunderground v.1.15,2013-09-30 15:18:00,
2013-09-30 11:23:00,62.2,58.6,30.02,WSW,257,0.0,0.0,88,0.00,,,0.00,Wunderground v.1.15,2013-09-30 15:23:00,
2013-09-30 11:29:00,60.9,57.9,30.02,WSW,256,0.0,0.0,90,0.00,,,0.00,Wunderground v.1.15,2013-09-30 15:29:00,
2013-09-30 11:35:00,60.0,58.0,30.01,WSW,257,0.0,0.0,93,0.00,,,0.00,Wunderground v.1.15,2013-09-30 15:35:00,
2013-09-30 11:40:00,60.0,58.3,30.01,WSW,256,0.0,0.0,94,0.00,,,0.00,Wunderground v.1.15,2013-09-30 15:40:00,
2013-09-30 11:46:00,59.7,57.7,30.01,WSW,257,0.0,0.0,93,0.00,,,0.00,Wunderground v.1.15,2013-09-30 15:46:00,
2013-09-30 11:52:00,59.7,57.7,30.01,WSW,256,0.0,0.0,93,0.00,,,0.00,Wunderground v.1.15,2013-09-30 15:52:00,
2013-09-30 11:57:00,60.3,58.9,30.01,WSW,256,0.0,0.0,95,0.00,,,0.00,Wunderground v.1.15,2013-09-30 15:57:00,
2013-09-30 12:03:00,60.7,58.4,30.01,WSW,257,0.0,0.0,92,0.00,,,0.00,Wunderground v.1.15,2013-09-30 16:03:00,
2013-09-30 12:08:00,60.4,58.4,30.01,WSW,256,0.0,0.0,93,0.00,,,0.00,Wunderground v.1.15,2013-09-30 16:08:00,
2013-09-30 12:14:00,60.5,58.5,30.01,WSW,256,0.0,0.0,93,0.00,,,0.00,Wunderground v.1.15,2013-09-30 16:14:00,
2013-09-30 12:20:00,60.7,58.7,30.00,WSW,256,0.0,0.0,93,0.00,,,0.00,Wunderground v.1.15,2013-09-30 16:20:00,
2013-09-30 12:26:00,60.9,58.3,30.00,WSW,256,0.0,0.0,91,0.00,,,0.00,Wunderground v.1.15,2013-09-30 16:26:00,
2013-09-30 12:32:00,61.1,58.5,30.00,WSW,256,0.0,0.0,91,0.00,,,0.00,Wunderground v.1.15,2013-09-30 16:32:00,
2013-09-30 12:38:00,61.5,58.8,30.00,WSW,256,0.0,0.0,91,0.00,,,0.00,Wunderground v.1.15,2013-09-30 16:38:00,
2013-09-30 12:44:00,62.0,59.3,30.00,WSW,256,0.0,0.0,91,0.00,,,0.00,Wunderground v.1.15,2013-09-30 16:44:00,
2013-09-30 12:50:00,62.3,59.6,30.00,WSW,256,0.0,0.0,91,0.00,,,0.00,Wunderground v.1.15,2013-09-30 16:50:00,
2013-09-30 12:56:00,62.6,59.9,30.00,WSW,257,0.0,0.0,91,0.00,,,0.00,Wunderground v.1.15,2013-09-30 16:56:00,
2013-09-30 13:02:00,62.9,59.6,30.00,WSW,257,0.0,0.0,89,0.00,,,0.00,Wunderground v.1.15,2013-09-30 17:02:00,
2013-09-30 13:08:00,63.2,59.6,29.99,WSW,257,0.0,0.0,88,0.00,,,0.00,Wunderground v.1.15,2013-09-30 17:08:00,
2013-09-30 13:14:00,63.2,59.9,29.99,WSW,256,0.0,0.0,89,0.00,,,0.00,Wunderground v.1.15,2013-09-30 17:14:00,
2013-09-30 13:19:00,63.4,60.1,29.99,WSW,257,0.0,0.0,89,0.00,,,0.00,Wunderground v.1.15,2013-09-30 17:19:00,
2013-09-30 13:24:00,63.5,59.9,29.99,WSW,256,0.0,0.0,88,0.00,,,0.00,Wunderground v.1.15,2013-09-30 17:24:00,
2013-09-30 13:30:00,63.7,60.1,29.99,WSW,256,0.0,0.0,88,0.00,,,0.00,Wunderground v.1.15,2013-09-30 17:30:00,
2013-09-30 13:36:00,63.8,59.9,29.99,WSW,256,0.0,0.0,87,0.00,,,0.00,Wunderground v.1.15,2013-09-30 17:36:00,
2013-09-30 13:42:00,63.8,59.5,29.99,WSW,257,0.0,0.0,86,0.00,,,0.00,Wunderground v.1.15,2013-09-30 17:42:00,
2013-09-30 13:48:00,63.7,59.8,29.98,WNW,292,0.0,0.0,87,0.00,,,0.00,Wunderground v.1.15,2013-09-30 17:48:00,
2013-09-30 13:54:00,63.8,59.9,29.98,WNW,292,0.0,0.0,87,0.00,,,0.00,Wunderground v.1.15,2013-09-30 17:54:00,
2013-09-30 13:59:00,64.0,60.1,29.98,WNW,291,0.0,0.0,87,0.00,,,0.00,Wunderground v.1.15,2013-09-30 17:59:00,
2013-09-30 14:05:00,64.4,59.5,29.97,ENE,72,0.0,0.0,84,0.00,,,0.00,Wunderground v.1.15,2013-09-30 18:05:00,
2013-09-30 14:10:00,64.6,59.7,29.97,NNE,12,0.0,1.0,84,0.00,,,0.00,Wunderground v.1.15,2013-09-30 18:10:00,
2013-09-30 14:16:00,64.8,60.2,29.97,ENE,70,0.0,2.0,85,0.00,,,0.00,Wunderground v.1.15,2013-09-30 18:16:00,
2013-09-30 14:22:00,65.1,59.8,29.97,NE,56,0.0,0.0,83,0.00,,,0.00,Wunderground v.1.15,2013-09-30 18:22:00,
2013-09-30 14:27:00,65.4,60.1,29.97,NE,44,0.0,0.0,83,0.00,,,0.00,Wunderground v.1.15,2013-09-30 18:27:00,
2013-09-30 14:33:00,65.7,60.4,29.97,NE,34,0.0,1.0,83,0.00,,,0.00,Wunderground v.1.15,2013-09-30 18:33:00,
2013-09-30 14:39:00,66.2,61.2,29.97,NE,51,0.0,2.0,84,0.00,,,0.00,Wunderground v.1.15,2013-09-30 18:39:00,
2013-09-30 14:46:00,66.8,60.4,29.97,ENE,60,0.0,2.0,80,0.00,,,0.00,Wunderground v.1.15,2013-09-30 18:46:00,
2013-09-30 14:52:00,67.6,59.8,29.96,NE,52,0.0,1.0,76,0.00,,,0.00,Wunderground v.1.15,2013-09-30 18:52:00,
2013-09-30 14:58:00,68.1,59.5,29.96,NW,318,1.0,2.0,74,0.00,,,0.00,Wunderground v.1.15,2013-09-30 18:58:00,
2013-09-30 15:04:00,68.5,60.3,29.95,West,262,0.0,1.0,75,0.00,,,0.00,Wunderground v.1.15,2013-09-30 19:04:00,
2013-09-30 15:10:00,69.2,60.9,29.95,West,261,0.0,0.0,75,0.00,,,0.00,Wunderground v.1.15,2013-09-30 19:10:00,
2013-09-30 15:16:00,69.0,60.4,29.95,ENE,60,0.0,1.0,74,0.00,,,0.00,Wunderground v.1.15,2013-09-30 19:16:00,
2013-09-30 15:22:00,69.6,59.0,29.95,ENE,61,0.0,0.0,69,0.00,,,0.00,Wunderground v.1.15,2013-09-30 19:22:00,
2013-09-30 15:27:00,69.9,59.7,29.95,ENE,61,0.0,1.0,70,0.00,,,0.00,Wunderground v.1.15,2013-09-30 19:27:00,
2013-09-30 15:33:00,69.5,58.1,29.94,ENE,61,0.0,1.0,67,0.00,,,0.00,Wunderground v.1.15,2013-09-30 19:33:00,
2013-09-30 15:38:00,69.3,61.4,29.94,ENE,61,0.0,1.0,76,0.00,,,0.00,Wunderground v.1.15,2013-09-30 19:38:00,
2013-09-30 15:43:00,69.0,60.7,29.94,NE,49,0.0,0.0,75,0.00,,,0.00,Wunderground v.1.15,2013-09-30 19:43:00,
2013-09-30 15:48:00,68.8,60.9,29.94,NE,48,0.0,0.0,76,0.00,,,0.00,Wunderground v.1.15,2013-09-30 19:48:00,
2013-09-30 15:54:00,68.5,60.3,29.94,NE,49,0.0,0.0,75,0.00,,,0.00,Wunderground v.1.15,2013-09-30 19:54:00,
2013-09-30 16:00:00,68.2,61.8,29.94,NE,49,0.0,0.0,80,0.00,,,0.00,Wunderground v.1.15,2013-09-30 20:00:00,
2013-09-30 16:06:00,67.8,61.8,29.94,NE,49,0.0,0.0,81,0.00,,,0.00,Wunderground v.1.15,2013-09-30 20:06:00,
2013-09-30 16:12:00,67.2,60.5,29.94,NE,49,0.0,0.0,79,0.00,,,0.00,Wunderground v.1.15,2013-09-30 20:12:00,
2013-09-30 16:18:00,66.7,61.0,29.94,NE,48,0.0,0.0,82,0.00,,,0.00,Wunderground v.1.15,2013-09-30 20:18:00,
2013-09-30 16:23:00,66.6,60.9,29.94,NE,48,0.0,0.0,82,0.00,,,0.00,Wunderground v.1.15,2013-09-30 20:23:00,
2013-09-30 16:29:00,66.4,59.7,29.94,NE,45,0.0,1.0,79,0.00,,,0.00,Wunderground v.1.15,2013-09-30 20:29:00,
2013-09-30 16:35:00,66.3,60.3,29.94,NE,46,0.0,1.0,81,0.00,,,0.00,Wunderground v.1.15,2013-09-30 20:35:00,
2013-09-30 16:41:00,66.1,60.1,29.94,NE,46,0.0,0.0,81,0.00,,,0.00,Wunderground v.1.15,2013-09-30 20:41:00,
2013-09-30 16:47:00,66.2,59.8,29.94,ESE,107,0.0,0.0,80,0.00,,,0.00,Wunderground v.1.15,2013-09-30 20:47:00,
2013-09-30 16:53:00,66.3,58.9,29.94,ESE,121,0.0,2.0,77,0.00,,,0.00,Wunderground v.1.15,2013-09-30 20:53:00,
2013-09-30 16:59:00,66.4,59.3,29.94,SE,125,0.0,2.0,78,0.00,,,0.00,Wunderground v.1.15,2013-09-30 20:59:00,
2013-09-30 17:04:00,66.5,60.5,29.94,ESE,119,0.0,1.0,81,0.00,,,0.00,Wunderground v.1.15,2013-09-30 21:04:00,
2013-09-30 17:10:00,66.5,59.4,29.94,ESE,119,0.0,0.0,78,0.00,,,0.00,Wunderground v.1.15,2013-09-30 21:10:00,
2013-09-30 17:16:00,66.4,59.3,29.94,East,86,0.0,0.0,78,0.00,,,0.00,Wunderground v.1.15,2013-09-30 21:16:00,
2013-09-30 17:22:00,66.2,59.1,29.94,NW,306,0.0,2.0,78,0.00,,,0.00,Wunderground v.1.15,2013-09-30 21:22:00,
2013-09-30 17:27:00,66.1,58.7,29.94,NW,306,0.0,2.0,77,0.00,,,0.00,Wunderground v.1.15,2013-09-30 21:27:00,
2013-09-30 17:32:00,66.0,59.7,29.94,WNW,295,0.0,1.0,80,0.00,,,0.00,Wunderground v.1.15,2013-09-30 21:32:00,
2013-09-30 17:38:00,66.0,58.9,29.94,North,350,0.0,1.0,78,0.00,,,0.00,Wunderground v.1.15,2013-09-30 21:38:00,
2013-09-30 17:44:00,66.0,59.3,29.94,NE,36,0.0,1.0,79,0.00,,,0.00,Wunderground v.1.15,2013-09-30 21:44:00,
2013-09-30 17:49:00,66.1,59.0,29.95,East,79,0.0,1.0,78,0.00,,,0.00,Wunderground v.1.15,2013-09-30 21:49:00,
2013-09-30 17:55:00,66.2,59.5,29.95,East,79,0.0,0.0,79,0.00,,,0.00,Wunderground v.1.15,2013-09-30 21:55:00,
2013-09-30 18:01:00,66.2,60.5,29.95,East,79,0.0,0.0,82,0.00,,,0.00,Wunderground v.1.15,2013-09-30 22:01:00,
2013-09-30 18:07:00,66.2,58.8,29.95,East,81,0.0,0.0,77,0.00,,,0.00,Wunderground v.1.15,2013-09-30 22:07:00,
2013-09-30 18:13:00,66.2,60.5,29.95,East,81,0.0,0.0,82,0.00,,,0.00,Wunderground v.1.15,2013-09-30 22:13:00,
2013-09-30 18:19:00,66.1,60.1,29.95,East,81,0.0,0.0,81,0.00,,,0.00,Wunderground v.1.15,2013-09-30 22:19:00,
2013-09-30 18:25:00,65.8,60.5,29.95,East,81,0.0,0.0,83,0.00,,,0.00,Wunderground v.1.15,2013-09-30 22:25:00,
2013-09-30 18:30:00,65.4,60.8,29.95,East,81,0.0,0.0,85,0.00,,,0.00,Wunderground v.1.15,2013-09-30 22:30:00,
2013-09-30 18:36:00,64.9,60.3,29.95,East,80,0.0,0.0,85,0.00,,,0.00,Wunderground v.1.15,2013-09-30 22:36:00,
2013-09-30 18:41:00,64.6,60.3,29.95,East,80,0.0,0.0,86,0.00,,,0.00,Wunderground v.1.15,2013-09-30 22:41:00,
2013-09-30 18:47:00,64.1,60.2,29.95,East,80,0.0,0.0,87,0.00,,,0.00,Wunderground v.1.15,2013-09-30 22:47:00,
2013-09-30 18:52:00,63.8,60.2,29.95,East,80,0.0,0.0,88,0.00,,,0.00,Wunderground v.1.15,2013-09-30 22:52:00,
2013-09-30 18:57:00,63.5,59.9,29.95,East,81,0.0,0.0,88,0.00,,,0.00,Wunderground v.1.15,2013-09-30 22:57:00,
2013-09-30 19:03:00,63.0,59.7,29.96,East,81,0.0,0.0,89,0.00,,,0.00,Wunderground v.1.15,2013-09-30 23:03:00,
2013-09-30 19:08:00,62.5,59.2,29.96,East,81,0.0,0.0,89,0.00,,,0.00,Wunderground v.1.15,2013-09-30 23:08:00,
2013-09-30 19:14:00,62.0,58.7,29.96,East,81,0.0,0.0,89,0.00,,,0.00,Wunderground v.1.15,2013-09-30 23:14:00,
2013-09-30 19:20:00,61.4,58.4,29.96,East,80,0.0,0.0,90,0.00,,,0.00,Wunderground v.1.15,2013-09-30 23:20:00,
2013-09-30 19:25:00,60.9,58.3,29.96,East,81,0.0,0.0,91,0.00,,,0.00,Wunderground v.1.15,2013-09-30 23:25:00,
2013-09-30 19:31:00,60.3,57.7,29.96,East,81,0.0,0.0,91,0.00,,,0.00,Wunderground v.1.15,2013-09-30 23:31:00,
2013-09-30 19:36:00,59.9,57.3,29.96,East,81,0.0,0.0,91,0.00,,,0.00,Wunderground v.1.15,2013-09-30 23:36:00,
2013-09-30 19:41:00,59.6,57.3,29.96,East,80,0.0,0.0,92,0.00,,,0.00,Wunderground v.1.15,2013-09-30 23:41:00,
2013-09-30 19:47:00,59.1,56.8,29.96,East,81,0.0,0.0,92,0.00,,,0.00,Wunderground v.1.15,2013-09-30 23:47:00,
2013-09-30 19:52:00,59.0,56.7,29.97,East,81,0.0,0.0,92,0.00,,,0.00,Wunderground v.1.15,2013-09-30 23:52:00,
2013-09-30 19:57:00,58.8,56.8,29.97,East,80,0.0,0.0,93,0.00,,,0.00,Wunderground v.1.15,2013-09-30 23:57:00,
2013-09-30 20:02:00,58.6,56.6,29.97,East,80,0.0,0.0,93,0.00,,,0.00,Wunderground v.1.15,2013-10-01 00:02:00,
2013-09-30 20:08:00,58.4,56.4,29.97,East,80,0.0,0.0,93,0.00,,,0.00,Wunderground v.1.15,2013-10-01 00:08:00,
2013-09-30 20:13:00,58.3,56.6,29.97,East,81,0.0,0.0,94,0.00,,,0.00,Wunderground v.1.15,2013-10-01 00:13:00,
2013-09-30 20:19:00,58.2,56.5,29.97,East,80,0.0,0.0,94,0.00,,,0.00,Wunderground v.1.15,2013-10-01 00:19:00,
2013-09-30 20:25:00,58.0,56.3,29.97,East,81,0.0,0.0,94,0.00,,,0.00,Wunderground v.1.15,2013-10-01 00:25:00,
2013-09-30 20:31:00,57.9,56.5,29.97,East,80,0.0,0.0,95,0.00,,,0.00,Wunderground v.1.15,2013-10-01 00:31:00,
2013-09-30 20:36:00,57.9,56.5,29.98,East,81,0.0,0.0,95,0.00,,,0.00,Wunderground v.1.15,2013-10-01 00:36:00,
2013-09-30 20:41:00,57.7,56.0,29.98,East,81,0.0,0.0,94,0.00,,,0.00,Wunderground v.1.15,2013-10-01 00:41:00,
2013-09-30 20:46:00,57.5,55.8,29.98,East,81,0.0,0.0,94,0.00,,,0.00,Wunderground v.1.15,2013-10-01 00:46:00,
2013-09-30 20:51:00,57.3,55.6,29.99,East,81,0.0,0.0,94,0.00,,,0.00,Wunderground v.1.15,2013-10-01 00:51:00,
2013-09-30 20:56:00,57.2,55.5,29.99,East,80,0.0,0.0,94,0.00,,,0.00,Wunderground v.1.15,2013-10-01 00:56:00,
2013-09-30 21:01:00,57.0,55.6,29.99,East,81,0.0,0.0,95,0.00,,,0.00,Wunderground v.1.15,2013-10-01 01:01:00,
2013-09-30 21:06:00,57.0,55.6,29.99,East,81,0.0,0.0,95,0.00,,,0.00,Wunderground v.1.15,2013-10-01 01:06:00,
2013-09-30 21:11:00,56.9,55.5,29.99,East,81,0.0,0.0,95,0.00,,,0.00,Wunderground v.1.15,2013-10-01 01:11:00,
2013-09-30 21:16:00,56.8,55.4,29.99,East,80,0.0,0.0,95,0.00,,,0.00,Wunderground v.1.15,2013-10-01 01:16:00,
2013-09-30 21:21:00,56.6,55.2,30.00,East,81,0.0,0.0,95,0.00,,,0.00,Wunderground v.1.15,2013-10-01 01:21:00,
2013-09-30 21:27:00,56.4,55.0,30.00,East,81,0.0,0.0,95,0.00,,,0.00,Wunderground v.1.15,2013-10-01 01:27:00,
2013-09-30 21:33:00,56.1,54.7,30.00,East,81,0.0,0.0,95,0.00,,,0.00,Wunderground v.1.15,2013-10-01 01:33:00,
2013-09-30 21:38:00,56.0,54.9,30.00,East,81,0.0,0.0,96,0.00,,,0.00,Wunderground v.1.15,2013-10-01 01:38:00,
2013-09-30 21:44:00,55.8,54.4,30.00,East,81,0.0,0.0,95,0.00,,,0.00,Wunderground v.1.15,2013-10-01 01:44:00,
2013-09-30 21:49:00,55.7,54.6,30.01,East,81,0.0,0.0,96,0.00,,,0.00,Wunderground v.1.15,2013-10-01 01:49:00,
2013-09-30 21:54:00,55.5,54.4,30.01,East,80,0.0,0.0,96,0.00,,,0.00,Wunderground v.1.15,2013-10-01 01:54:00,
2013-09-30 22:00:00,55.4,54.3,30.01,East,80,0.0,0.0,96,0.00,,,0.00,Wunderground v.1.15,2013-10-01 02:00:00,
2013-09-30 22:05:00,55.3,54.2,30.02,East,80,0.0,0.0,96,0.00,,,0.00,Wunderground v.1.15,2013-10-01 02:05:00,
2013-09-30 22:10:00,55.2,54.1,30.02,East,80,0.0,0.0,96,0.00,,,0.00,Wunderground v.1.15,2013-10-01 02:10:00,
2013-09-30 22:16:00,55.2,54.1,30.02,East,81,0.0,0.0,96,0.00,,,0.00,Wunderground v.1.15,2013-10-01 02:16:00,
2013-09-30 22:22:00,55.1,54.0,30.01,East,81,0.0,0.0,96,0.00,,,0.00,Wunderground v.1.15,2013-10-01 02:22:00,
2013-09-30 22:27:00,54.9,53.8,30.01,East,80,0.0,0.0,96,0.00,,,0.00,Wunderground v.1.15,2013-10-01 02:27:00,
2013-09-30 22:33:00,54.8,53.7,30.01,East,81,0.0,0.0,96,0.00,,,0.00,Wunderground v.1.15,2013-10-01 02:33:00,
2013-09-30 22:39:00,54.7,53.9,30.01,East,80,0.0,0.0,97,0.00,,,0.00,Wunderground v.1.15,2013-10-01 02:39:00,
2013-09-30 22:45:00,54.6,53.8,30.01,East,81,0.0,0.0,97,0.00,,,0.00,Wunderground v.1.15,2013-10-01 02:45:00,
2013-09-30 22:51:00,54.5,53.7,30.01,East,81,0.0,0.0,97,0.00,,,0.00,Wunderground v.1.15,2013-10-01 02:51:00,
2013-09-30 22:57:00,54.3,53.5,30.01,East,81,0.0,0.0,97,0.00,,,0.00,Wunderground v.1.15,2013-10-01 02:57:00,
2013-09-30 23:03:00,54.4,53.6,30.01,East,81,0.0,0.0,97,0.00,,,0.00,Wunderground v.1.15,2013-10-01 03:03:00,
2013-09-30 23:08:00,54.5,53.9,30.01,East,81,0.0,0.0,98,0.00,,,0.00,Wunderground v.1.15,2013-10-01 03:08:00,
2013-09-30 23:14:00,54.5,53.7,30.01,East,81,0.0,0.0,97,0.00,,,0.00,Wunderground v.1.15,2013-10-01 03:14:00,
2013-09-30 23:20:00,54.4,53.6,30.02,East,81,0.0,0.0,97,0.00,,,0.00,Wunderground v.1.15,2013-10-01 03:20:00,
2013-09-30 23:25:00,54.2,53.4,30.02,East,80,0.0,0.0,97,0.00,,,0.00,Wunderground v.1.15,2013-10-01 03:25:00,
2013-09-30 23:31:00,54.0,53.2,30.02,East,81,0.0,0.0,97,0.00,,,0.00,Wunderground v.1.15,2013-10-01 03:31:00,
2013-09-30 23:37:00,53.8,53.0,30.02,East,81,0.0,0.0,97,0.00,,,0.00,Wunderground v.1.15,2013-10-01 03:37:00,
2013-09-30 23:43:00,53.8,53.0,30.02,East,80,0.0,0.0,97,0.00,,,0.00,Wunderground v.1.15,2013-10-01 03:43:00,
2013-09-30 23:49:00,53.7,52.9,30.02,East,81,0.0,0.0,97,0.00,,,0.00,Wunderground v.1.15,2013-10-01 03:49:00,
2013-09-30 23:54:00,53.6,52.8,30.02,East,81,0.0,0.0,97,0.00,,,0.00,Wunderground v.1.15,2013-10-01 03:54:00,
2013-09-30 23:59:00,53.5,52.7,30.02,East,81,0.0,0.0,97,0.00,,,0.00,Wunderground v.1.15,2013-10-01 03:59:00,